Wetterdaten: Montag, 06.03.2017
Datum Zeit Temperatur Luftfeuchte Luftdruck Regen Wind Richtung Richtung Sonnenschein ET UV Solar Taupunkt Windchill Windben
06.03.2017 00:00 3,6 C 91 % 999,6 hPa 0,0 l/m 2,6 km/h (1 Bft) W-SW 239 0 min 0,000 mm 0,0 UV-I 0 W/m 2,3 C 3,6 C 8,0 km/h (2 Bft)
06.03.2017 00:05 3,6 C 91 % 999,7 hPa 0,0 l/m 0,4 km/h (0 Bft) W-NW 291 0 min 0,000 mm 0,0 UV-I 0 W/m 2,3 C 3,6 C 4,8 km/h (1 Bft)
06.03.2017 00:10 3,5 C 91 % 999,7 hPa 0,0 l/m 1,5 km/h (1 Bft) W-NW 288 0 min 0,000 mm 0,0 UV-I 0 W/m 2,2 C 3,5 C 8,0 km/h (2 Bft)
06.03.2017 00:15 3,5 C 91 % 999,8 hPa 0,0 l/m 0,6 km/h (0 Bft) W-NW 295 0 min 0,000 mm 0,0 UV-I 0 W/m 2,2 C 3,5 C 3,2 km/h (1 Bft)
06.03.2017 00:20 3,4 C 91 % 999,9 hPa 0,0 l/m 0,3 km/h (0 Bft) W-NW 294 0 min 0,000 mm 0,0 UV-I 0 W/m 2,1 C 3,4 C 3,2 km/h (1 Bft)
06.03.2017 00:25 3,4 C 91 % 999,9 hPa 0,0 l/m 0,7 km/h (0 Bft) W 281 0 min 0,000 mm 0,0 UV-I 0 W/m 2,1 C 3,4 C 4,8 km/h (1 Bft)
06.03.2017 00:30 3,4 C 91 % 1000,0 hPa 0,0 l/m 0,6 km/h (0 Bft) W 276 0 min 0,000 mm 0,0 UV-I 0 W/m 2,1 C 3,4 C 4,8 km/h (1 Bft)
06.03.2017 00:35 3,4 C 92 % 1000,0 hPa 0,0 l/m 0,1 km/h (0 Bft) W-NW 283 0 min 0,000 mm 0,0 UV-I 0 W/m 2,2 C 3,4 C 1,6 km/h (1 Bft)
06.03.2017 00:40 3,4 C 92 % 1000,0 hPa 0,0 l/m 0,0 km/h (0 Bft) W-SW 255 0 min 0,000 mm 0,0 UV-I 0 W/m 2,2 C 3,4 C 0,0 km/h (0 Bft)
06.03.2017 00:45 3,4 C 92 % 1000,1 hPa 0,0 l/m 0,0 km/h (0 Bft) W-NW 286 0 min 0,000 mm 0,0 UV-I 0 W/m 2,2 C 3,4 C 0,0 km/h (0 Bft)
06.03.2017 00:50 3,3 C 92 % 1000,2 hPa 0,2 l/m 0,0 km/h (0 Bft) W 272 0 min 0,000 mm 0,0 UV-I 0 W/m 2,1 C 3,3 C 0,0 km/h (0 Bft)
06.03.2017 00:55 3,3 C 92 % 1000,2 hPa 0,0 l/m 0,0 km/h (0 Bft) W-NW 284 0 min 0,000 mm 0,0 UV-I 0 W/m 2,1 C 3,3 C 1,6 km/h (1 Bft)
06.03.2017 01:00 3,3 C 92 % 1000,2 hPa 0,0 l/m 0,0 km/h (0 Bft) W 269 0 min 0,000 mm 0,0 UV-I 0 W/m 2,1 C 3,3 C 0,0 km/h (0 Bft)
06.03.2017 01:05 3,3 C 92 % 1000,2 hPa 0,0 l/m 0,0 km/h (0 Bft) W-NW 286 0 min 0,000 mm 0,0 UV-I 0 W/m 2,1 C 3,3 C 0,0 km/h (0 Bft)
06.03.2017 01:10 3,3 C 92 % 1000,2 hPa 0,2 l/m 0,0 km/h (0 Bft) W-NW 285 0 min 0,000 mm 0,0 UV-I 0 W/m 2,1 C 3,3 C 0,0 km/h (0 Bft)
06.03.2017 01:15 3,3 C 92 % 1000,3 hPa 0,0 l/m 0,0 km/h (0 Bft) W-NW 285 0 min 0,000 mm 0,0 UV-I 0 W/m 2,1 C 3,3 C 0,0 km/h (0 Bft)
06.03.2017 01:20 3,3 C 92 % 1000,3 hPa 0,0 l/m 0,0 km/h (0 Bft) W-NW 285 0 min 0,000 mm 0,0 UV-I 0 W/m 2,1 C 3,3 C 0,0 km/h (0 Bft)
06.03.2017 01:25 3,3 C 93 % 1000,5 hPa 0,0 l/m 0,0 km/h (0 Bft) W-NW 285 0 min 0,000 mm 0,0 UV-I 0 W/m 2,3 C 3,3 C 0,0 km/h (0 Bft)
06.03.2017 01:30 3,3 C 93 % 1000,5 hPa 0,0 l/m 0,0 km/h (0 Bft) W-NW 285 0 min 0,000 mm 0,0 UV-I 0 W/m 2,3 C 3,3 C 0,0 km/h (0 Bft)
06.03.2017 01:35 3,3 C 93 % 1000,6 hPa 0,0 l/m 0,0 km/h (0 Bft) W-NW 285 0 min 0,000 mm 0,0 UV-I 0 W/m 2,3 C 3,3 C 0,0 km/h (0 Bft)
06.03.2017 01:40 3,4 C 93 % 1000,7 hPa 0,0 l/m 0,0 km/h (0 Bft) W-NW 285 0 min 0,000 mm 0,0 UV-I 0 W/m 2,4 C 3,4 C 0,0 km/h (0 Bft)
06.03.2017 01:45 3,4 C 93 % 1000,7 hPa 0,0 l/m 0,0 km/h (0 Bft) W-NW 285 0 min 0,000 mm 0,0 UV-I 0 W/m 2,4 C 3,4 C 0,0 km/h (0 Bft)
06.03.2017 01:50 3,4 C 93 % 1000,7 hPa 0,0 l/m 0,0 km/h (0 Bft) W-NW 285 0 min 0,000 mm 0,0 UV-I 0 W/m 2,4 C 3,4 C 0,0 km/h (0 Bft)
06.03.2017 01:55 3,5 C 93 % 1000,7 hPa 0,0 l/m 0,0 km/h (0 Bft) W-NW 287 0 min 0,000 mm 0,0 UV-I 0 W/m 2,5 C 3,5 C 0,0 km/h (0 Bft)
06.03.2017 02:00 3,6 C 93 % 1000,8 hPa 0,0 l/m 0,0 km/h (0 Bft) W 270 0 min 0,000 mm 0,0 UV-I 0 W/m 2,6 C 3,6 C 0,0 km/h (0 Bft)
06.03.2017 02:05 3,6 C 93 % 1000,8 hPa 0,0 l/m 0,0 km/h (0 Bft) W 268 0 min 0,000 mm 0,0 UV-I 0 W/m 2,6 C 3,6 C 0,0 km/h (0 Bft)
06.03.2017 02:10 3,6 C 93 % 1000,8 hPa 0,0 l/m 0,0 km/h (0 Bft) W-NW 288 0 min 0,000 mm 0,0 UV-I 0 W/m 2,6 C 3,6 C 0,0 km/h (0 Bft)
06.03.2017 02:15 3,6 C 93 % 1000,8 hPa 0,0 l/m 0,4 km/h (0 Bft) W 272 0 min 0,000 mm 0,0 UV-I 0 W/m 2,6 C 3,6 C 3,2 km/h (1 Bft)
06.03.2017 02:20 3,6 C 93 % 1000,7 hPa 0,0 l/m 0,1 km/h (0 Bft) W 273 0 min 0,000 mm 0,0 UV-I 0 W/m 2,6 C 3,6 C 1,6 km/h (1 Bft)
06.03.2017 02:25 3,6 C 93 % 1000,8 hPa 0,0 l/m 0,0 km/h (0 Bft) W-NW 284 0 min 0,000 mm 0,0 UV-I 0 W/m 2,6 C 3,6 C 1,6 km/h (1 Bft)
06.03.2017 02:30 3,6 C 93 % 1000,8 hPa 0,0 l/m 0,1 km/h (0 Bft) W 271 0 min 0,000 mm 0,0 UV-I 0 W/m 2,6 C 3,6 C 1,6 km/h (1 Bft)
06.03.2017 02:35 3,6 C 93 % 1000,8 hPa 0,0 l/m 0,2 km/h (0 Bft) W-NW 300 0 min 0,000 mm 0,0 UV-I 0 W/m 2,6 C 3,6 C 4,8 km/h (1 Bft)
06.03.2017 02:40 3,6 C 92 % 1000,8 hPa 0,0 l/m 0,0 km/h (0 Bft) W-NW 300 0 min 0,000 mm 0,0 UV-I 0 W/m 2,4 C 3,6 C 0,0 km/h (0 Bft)
06.03.2017 02:45 3,6 C 92 % 1000,8 hPa 0,0 l/m 0,0 km/h (0 Bft) W-NW 300 0 min 0,000 mm 0,0 UV-I 0 W/m 2,4 C 3,6 C 0,0 km/h (0 Bft)
06.03.2017 02:50 3,5 C 92 % 1000,7 hPa 0,0 l/m 0,0 km/h (0 Bft) W-NW 300 0 min 0,000 mm 0,0 UV-I 0 W/m 2,3 C 3,5 C 0,0 km/h (0 Bft)
06.03.2017 02:55 3,4 C 92 % 1000,7 hPa 0,0 l/m 0,0 km/h (0 Bft) W-NW 300 0 min 0,000 mm 0,0 UV-I 0 W/m 2,2 C 3,4 C 0,0 km/h (0 Bft)
06.03.2017 03:00 3,3 C 92 % 1000,7 hPa 0,0 l/m 0,0 km/h (0 Bft) W-NW 300 0 min 0,000 mm 0,0 UV-I 0 W/m 2,1 C 3,3 C 0,0 km/h (0 Bft)
06.03.2017 03:05 3,3 C 92 % 1000,7 hPa 0,0 l/m 0,0 km/h (0 Bft) SW 230 0 min 0,000 mm 0,0 UV-I 0 W/m 2,1 C 3,3 C 0,0 km/h (0 Bft)
06.03.2017 03:10 3,2 C 92 % 1000,7 hPa 0,0 l/m 0,0 km/h (0 Bft) W-NW 298 0 min 0,000 mm 0,0 UV-I 0 W/m 2,0 C 3,2 C 1,6 km/h (1 Bft)
06.03.2017 03:15 3,2 C 92 % 1000,8 hPa 0,0 l/m 0,4 km/h (0 Bft) W 272 0 min 0,000 mm 0,0 UV-I 0 W/m 2,0 C 3,2 C 3,2 km/h (1 Bft)
06.03.2017 03:20 3,3 C 93 % 1000,8 hPa 0,0 l/m 0,4 km/h (0 Bft) W 267 0 min 0,000 mm 0,0 UV-I 0 W/m 2,3 C 3,3 C 4,8 km/h (1 Bft)
06.03.2017 03:25 3,2 C 92 % 1000,8 hPa 0,0 l/m 0,1 km/h (0 Bft) W-NW 286 0 min 0,000 mm 0,0 UV-I 0 W/m 2,0 C 3,2 C 3,2 km/h (1 Bft)
06.03.2017 03:30 3,2 C 92 % 1000,8 hPa 0,0 l/m 0,0 km/h (0 Bft) W-NW 298 0 min 0,000 mm 0,0 UV-I 0 W/m 2,0 C 3,2 C 1,6 km/h (1 Bft)
06.03.2017 03:35 3,2 C 93 % 1000,8 hPa 0,0 l/m 0,2 km/h (0 Bft) W-NW 284 0 min 0,000 mm 0,0 UV-I 0 W/m 2,2 C 3,2 C 3,2 km/h (1 Bft)
06.03.2017 03:40 3,2 C 92 % 1000,8 hPa 0,0 l/m 0,9 km/h (0 Bft) W-NW 296 0 min 0,000 mm 0,0 UV-I 0 W/m 2,0 C 3,2 C 4,8 km/h (1 Bft)
06.03.2017 03:45 3,2 C 93 % 1000,8 hPa 0,0 l/m 0,3 km/h (0 Bft) W 271 0 min 0,000 mm 0,0 UV-I 0 W/m 2,2 C 3,2 C 3,2 km/h (1 Bft)
06.03.2017 03:50 3,2 C 93 % 1000,7 hPa 0,0 l/m 0,3 km/h (0 Bft) W-NW 292 0 min 0,000 mm 0,0 UV-I 0 W/m 2,2 C 3,2 C 6,4 km/h (2 Bft)
06.03.2017 03:55 3,3 C 93 % 1000,7 hPa 0,0 l/m 0,0 km/h (0 Bft) W-SW 250 0 min 0,000 mm 0,0 UV-I 0 W/m 2,3 C 3,3 C 1,6 km/h (1 Bft)
06.03.2017 04:00 3,3 C 93 % 1000,6 hPa 0,0 l/m 0,0 km/h (0 Bft) W-SW 250 0 min 0,000 mm 0,0 UV-I 0 W/m 2,3 C 3,3 C 0,0 km/h (0 Bft)
06.03.2017 04:05 3,2 C 92 % 1000,5 hPa 0,0 l/m 0,0 km/h (0 Bft) W-NW 299 0 min 0,000 mm 0,0 UV-I 0 W/m 2,0 C 3,2 C 0,0 km/h (0 Bft)
06.03.2017 04:10 3,2 C 92 % 1000,5 hPa 0,0 l/m 0,0 km/h (0 Bft) W-NW 290 0 min 0,000 mm 0,0 UV-I 0 W/m 2,0 C 3,2 C 0,0 km/h (0 Bft)
06.03.2017 04:15 3,3 C 93 % 1000,5 hPa 0,0 l/m 0,0 km/h (0 Bft) W-NW 286 0 min 0,000 mm 0,0 UV-I 0 W/m 2,3 C 3,3 C 0,0 km/h (0 Bft)
06.03.2017 04:20 3,3 C 93 % 1000,6 hPa 0,0 l/m 0,0 km/h (0 Bft) W 263 0 min 0,000 mm 0,0 UV-I 0 W/m 2,3 C 3,3 C 0,0 km/h (0 Bft)
06.03.2017 04:25 3,4 C 93 % 1000,5 hPa 0,0 l/m 0,0 km/h (0 Bft) W-NW 292 0 min 0,000 mm 0,0 UV-I 0 W/m 2,4 C 3,4 C 0,0 km/h (0 Bft)
06.03.2017 04:30 3,5 C 93 % 1000,5 hPa 0,0 l/m 0,0 km/h (0 Bft) S-SW 198 0 min 0,000 mm 0,0 UV-I 0 W/m 2,5 C 3,5 C 0,0 km/h (0 Bft)
06.03.2017 04:35 3,6 C 93 % 1000,5 hPa 0,0 l/m 1,9 km/h (1 Bft) SW 216 0 min 0,000 mm 0,0 UV-I 0 W/m 2,6 C 3,6 C 9,7 km/h (2 Bft)
06.03.2017 04:40 3,6 C 93 % 1000,5 hPa 0,0 l/m 0,0 km/h (0 Bft) S 184 0 min 0,000 mm 0,0 UV-I 0 W/m 2,6 C 3,6 C 0,0 km/h (0 Bft)
06.03.2017 04:45 3,7 C 93 % 1000,5 hPa 0,0 l/m 0,0 km/h (0 Bft) W-SW 255 0 min 0,000 mm 0,0 UV-I 0 W/m 2,7 C 3,7 C 0,0 km/h (0 Bft)
06.03.2017 04:50 3,7 C 92 % 1000,5 hPa 0,2 l/m 1,3 km/h (1 Bft) W 260 0 min 0,000 mm 0,0 UV-I 0 W/m 2,5 C 3,7 C 8,0 km/h (2 Bft)
06.03.2017 04:55 3,8 C 92 % 1000,5 hPa 0,0 l/m 0,4 km/h (0 Bft) SW 223 0 min 0,000 mm 0,0 UV-I 0 W/m 2,6 C 3,8 C 4,8 km/h (1 Bft)
06.03.2017 05:00 3,7 C 92 % 1000,5 hPa 0,0 l/m 0,4 km/h (0 Bft) W-SW 251 0 min 0,000 mm 0,0 UV-I 0 W/m 2,5 C 3,7 C 4,8 km/h (1 Bft)
06.03.2017 05:05 3,7 C 92 % 1000,4 hPa 0,0 l/m 0,2 km/h (0 Bft) S-SW 204 0 min 0,000 mm 0,0 UV-I 0 W/m 2,5 C 3,7 C 6,4 km/h (2 Bft)
06.03.2017 05:10 3,7 C 92 % 1000,5 hPa 0,0 l/m 2,0 km/h (1 Bft) SW 228 0 min 0,000 mm 0,0 UV-I 0 W/m 2,5 C 3,7 C 6,4 km/h (2 Bft)
06.03.2017 05:15 3,7 C 92 % 1000,5 hPa 0,0 l/m 0,0 km/h (0 Bft) SW 227 0 min 0,000 mm 0,0 UV-I 0 W/m 2,5 C 3,7 C 0,0 km/h (0 Bft)
06.03.2017 05:20 3,7 C 92 % 1000,5 hPa 0,0 l/m 0,0 km/h (0 Bft) SW 217 0 min 0,000 mm 0,0 UV-I 0 W/m 2,5 C 3,7 C 0,0 km/h (0 Bft)
06.03.2017 05:25 3,7 C 92 % 1000,5 hPa 0,0 l/m 0,2 km/h (0 Bft) SW 233 0 min 0,000 mm 0,0 UV-I 0 W/m 2,5 C 3,7 C 3,2 km/h (1 Bft)
06.03.2017 05:30 3,7 C 92 % 1000,5 hPa 0,0 l/m 0,0 km/h (0 Bft) S 174 0 min 0,000 mm 0,0 UV-I 0 W/m 2,5 C 3,7 C 0,0 km/h (0 Bft)
06.03.2017 05:35 3,7 C 92 % 1000,5 hPa 0,0 l/m 0,0 km/h (0 Bft) SW 221 0 min 0,000 mm 0,0 UV-I 0 W/m 2,5 C 3,7 C 0,0 km/h (0 Bft)
06.03.2017 05:40 3,7 C 92 % 1000,5 hPa 0,0 l/m 0,0 km/h (0 Bft) S 178 0 min 0,000 mm 0,0 UV-I 0 W/m 2,5 C 3,7 C 0,0 km/h (0 Bft)
06.03.2017 05:45 3,7 C 92 % 1000,5 hPa 0,2 l/m 0,5 km/h (0 Bft) S-SO 150 0 min 0,000 mm 0,0 UV-I 0 W/m 2,5 C 3,7 C 4,8 km/h (1 Bft)
06.03.2017 05:50 3,7 C 93 % 1000,5 hPa 0,0 l/m 0,0 km/h (0 Bft) SW 227 0 min 0,000 mm 0,0 UV-I 0 W/m 2,7 C 3,7 C 1,6 km/h (1 Bft)
06.03.2017 05:55 3,8 C 93 % 1000,4 hPa 0,0 l/m 0,1 km/h (0 Bft) SW 216 0 min 0,000 mm 0,0 UV-I 0 W/m 2,8 C 3,8 C 3,2 km/h (1 Bft)
06.03.2017 06:00 3,8 C 93 % 1000,5 hPa 0,0 l/m 0,1 km/h (0 Bft) S-SW 201 0 min 0,000 mm 0,0 UV-I 0 W/m 2,8 C 3,8 C 1,6 km/h (1 Bft)
06.03.2017 06:05 3,8 C 93 % 1000,4 hPa 0,0 l/m 0,1 km/h (0 Bft) S-SW 204 0 min 0,000 mm 0,0 UV-I 0 W/m 2,8 C 3,8 C 1,6 km/h (1 Bft)
06.03.2017 06:10 3,8 C 93 % 1000,4 hPa 0,0 l/m 0,0 km/h (0 Bft) O-NO 72 0 min 0,000 mm 0,0 UV-I 0 W/m 2,8 C 3,8 C 0,0 km/h (0 Bft)
06.03.2017 06:15 3,8 C 93 % 1000,4 hPa 0,0 l/m 2,2 km/h (1 Bft) SW 223 0 min 0,000 mm 0,0 UV-I 0 W/m 2,8 C 3,8 C 8,0 km/h (2 Bft)
06.03.2017 06:20 3,8 C 93 % 1000,4 hPa 0,2 l/m 0,0 km/h (0 Bft) S-SW 203 0 min 0,000 mm 0,0 UV-I 0 W/m 2,8 C 3,8 C 1,6 km/h (1 Bft)
06.03.2017 06:25 3,8 C 93 % 1000,3 hPa 0,0 l/m 0,6 km/h (0 Bft) S-SO 150 0 min 0,000 mm 0,0 UV-I 0 W/m 2,8 C 3,8 C 4,8 km/h (1 Bft)
06.03.2017 06:30 3,8 C 93 % 1000,3 hPa 0,0 l/m 0,6 km/h (0 Bft) W-SW 248 0 min 0,000 mm 0,0 UV-I 0 W/m 2,8 C 3,8 C 4,8 km/h (1 Bft)
06.03.2017 06:35 3,8 C 93 % 1000,3 hPa 0,0 l/m 0,0 km/h (0 Bft) S 188 0 min 0,000 mm 0,0 UV-I 0 W/m 2,8 C 3,8 C 0,0 km/h (0 Bft)
06.03.2017 06:40 3,9 C 93 % 1000,3 hPa 0,0 l/m 0,1 km/h (0 Bft) S 188 0 min 0,000 mm 0,0 UV-I 0 W/m 2,9 C 3,9 C 1,6 km/h (1 Bft)
06.03.2017 06:45 3,9 C 93 % 1000,3 hPa 0,0 l/m 0,5 km/h (0 Bft) S-SW 194 0 min 0,000 mm 0,0 UV-I 0 W/m 2,9 C 3,9 C 6,4 km/h (2 Bft)
06.03.2017 06:50 3,9 C 93 % 1000,3 hPa 0,0 l/m 2,2 km/h (1 Bft) S 171 0 min 0,000 mm 0,0 UV-I 0 W/m 2,9 C 3,9 C 11,3 km/h (2 Bft)
06.03.2017 06:55 3,9 C 93 % 1000,3 hPa 0,0 l/m 1,2 km/h (1 Bft) S 176 0 min 0,000 mm 0,0 UV-I 0 W/m 2,9 C 3,9 C 6,4 km/h (2 Bft)
06.03.2017 07:00 3,9 C 93 % 1000,3 hPa 0,0 l/m 0,1 km/h (0 Bft) S-SW 198 0 min 0,000 mm 0,0 UV-I 0 W/m 2,9 C 3,9 C 1,6 km/h (1 Bft)
06.03.2017 07:05 3,9 C 93 % 1000,3 hPa 0,0 l/m 0,4 km/h (0 Bft) W-SW 244 0 min 0,000 mm 0,0 UV-I 0 W/m 2,9 C 3,9 C 4,8 km/h (1 Bft)
06.03.2017 07:10 3,9 C 93 % 1000,3 hPa 0,0 l/m 0,2 km/h (0 Bft) S-SW 207 0 min 0,000 mm 0,0 UV-I 1 W/m 2,9 C 3,9 C 3,2 km/h (1 Bft)
06.03.2017 07:15 3,9 C 93 % 1000,3 hPa 0,0 l/m 0,9 km/h (0 Bft) S-SW 204 0 min 0,000 mm 0,0 UV-I 7 W/m 2,9 C 3,9 C 6,4 km/h (2 Bft)
06.03.2017 07:20 3,9 C 93 % 1000,3 hPa 0,0 l/m 0,9 km/h (0 Bft) SW 219 0 min 0,000 mm 0,0 UV-I 9 W/m 2,9 C 3,9 C 9,7 km/h (2 Bft)
06.03.2017 07:25 3,9 C 92 % 1000,3 hPa 0,2 l/m 1,0 km/h (0 Bft) SW 221 0 min 0,000 mm 0,0 UV-I 9 W/m 2,7 C 3,9 C 9,7 km/h (2 Bft)
06.03.2017 07:30 3,9 C 93 % 1000,2 hPa 0,0 l/m 0,3 km/h (0 Bft) SW 236 0 min 0,000 mm 0,0 UV-I 7 W/m 2,9 C 3,9 C 3,2 km/h (1 Bft)
06.03.2017 07:35 3,9 C 93 % 1000,2 hPa 0,0 l/m 1,0 km/h (0 Bft) W-SW 250 0 min 0,000 mm 0,0 UV-I 7 W/m 2,9 C 3,9 C 6,4 km/h (2 Bft)
06.03.2017 07:40 3,9 C 93 % 1000,1 hPa 0,0 l/m 0,8 km/h (0 Bft) S-SW 208 0 min 0,000 mm 0,0 UV-I 8 W/m 2,9 C 3,9 C 6,4 km/h (2 Bft)
06.03.2017 07:45 3,9 C 93 % 1000,2 hPa 0,0 l/m 0,5 km/h (0 Bft) S-SW 194 0 min 0,000 mm 0,0 UV-I 10 W/m 2,9 C 3,9 C 6,4 km/h (2 Bft)
06.03.2017 07:50 3,9 C 93 % 1000,1 hPa 0,0 l/m 0,7 km/h (0 Bft) S-SW 205 0 min 0,000 mm 0,0 UV-I 13 W/m 2,9 C 3,9 C 8,0 km/h (2 Bft)
06.03.2017 07:55 3,9 C 92 % 1000,1 hPa 0,0 l/m 0,6 km/h (0 Bft) W-SW 252 0 min 0,000 mm 0,0 UV-I 20 W/m 2,7 C 3,9 C 8,0 km/h (2 Bft)
06.03.2017 08:00 3,9 C 92 % 1000,1 hPa 0,2 l/m 0,0 km/h (0 Bft) W-SW 254 0 min 0,000 mm 0,0 UV-I 21 W/m 2,7 C 3,9 C 0,0 km/h (0 Bft)
06.03.2017 08:05 4,0 C 92 % 1000,0 hPa 0,0 l/m 0,1 km/h (0 Bft) SW 214 0 min 0,000 mm 0,0 UV-I 18 W/m 2,8 C 4,0 C 1,6 km/h (1 Bft)
06.03.2017 08:10 4,0 C 92 % 1000,0 hPa 0,0 l/m 0,0 km/h (0 Bft) S 181 0 min 0,000 mm 0,0 UV-I 25 W/m 2,8 C 4,0 C 0,0 km/h (0 Bft)
06.03.2017 08:15 3,9 C 92 % 1000,0 hPa 0,0 l/m 0,9 km/h (0 Bft) S 189 0 min 0,000 mm 0,0 UV-I 41 W/m 2,7 C 3,9 C 8,0 km/h (2 Bft)
06.03.2017 08:20 3,9 C 92 % 999,9 hPa 0,0 l/m 1,1 km/h (1 Bft) S-SW 204 0 min 0,000 mm 0,0 UV-I 43 W/m 2,7 C 3,9 C 8,0 km/h (2 Bft)
06.03.2017 08:25 3,9 C 92 % 999,9 hPa 0,0 l/m 0,0 km/h (0 Bft) SW 219 0 min 0,000 mm 0,0 UV-I 30 W/m 2,7 C 3,9 C 1,6 km/h (1 Bft)
06.03.2017 08:30 4,0 C 92 % 999,9 hPa 0,0 l/m 0,2 km/h (0 Bft) S-SW 207 0 min 0,000 mm 0,0 UV-I 25 W/m 2,8 C 4,0 C 3,2 km/h (1 Bft)
06.03.2017 08:35 4,1 C 92 % 999,9 hPa 0,0 l/m 0,0 km/h (0 Bft) SW 234 0 min 0,000 mm 0,0 UV-I 28 W/m 2,9 C 4,1 C 0,0 km/h (0 Bft)
06.03.2017 08:40 4,1 C 92 % 999,8 hPa 0,2 l/m 0,5 km/h (0 Bft) S 187 0 min 0,000 mm 0,0 UV-I 29 W/m 2,9 C 4,1 C 6,4 km/h (2 Bft)
06.03.2017 08:45 4,1 C 92 % 999,8 hPa 0,0 l/m 0,0 km/h (0 Bft) SW 217 0 min 0,000 mm 0,0 UV-I 23 W/m 2,9 C 4,1 C 0,0 km/h (0 Bft)
06.03.2017 08:50 4,1 C 93 % 999,8 hPa 0,0 l/m 1,1 km/h (1 Bft) SW 223 0 min 0,000 mm 0,0 UV-I 23 W/m 3,1 C 4,1 C 6,4 km/h (2 Bft)
06.03.2017 08:55 4,1 C 93 % 999,8 hPa 0,0 l/m 2,2 km/h (1 Bft) SW 224 0 min 0,000 mm 0,0 UV-I 31 W/m 3,1 C 4,1 C 8,0 km/h (2 Bft)
06.03.2017 09:00 4,1 C 92 % 999,8 hPa 0,0 l/m 1,4 km/h (1 Bft) SW 228 0 min 0,000 mm 0,0 UV-I 45 W/m 2,9 C 4,1 C 6,4 km/h (2 Bft)
06.03.2017 09:05 4,2 C 92 % 999,7 hPa 0,0 l/m 0,5 km/h (0 Bft) SW 215 0 min 0,025 mm 0,0 UV-I 59 W/m 3,0 C 4,2 C 3,2 km/h (1 Bft)
06.03.2017 09:10 4,2 C 92 % 999,7 hPa 0,0 l/m 1,0 km/h (0 Bft) W 281 0 min 0,000 mm 0,0 UV-I 79 W/m 3,0 C 4,2 C 6,4 km/h (2 Bft)
06.03.2017 09:15 4,2 C 92 % 999,6 hPa 0,2 l/m 1,6 km/h (1 Bft) SW 232 0 min 0,000 mm 0,3 UV-I 114 W/m 3,0 C 4,2 C 9,7 km/h (2 Bft)
06.03.2017 09:20 4,3 C 93 % 999,5 hPa 0,0 l/m 1,5 km/h (1 Bft) W-SW 246 0 min 0,000 mm 0,5 UV-I 149 W/m 3,3 C 4,3 C 6,4 km/h (2 Bft)
06.03.2017 09:25 4,4 C 93 % 999,5 hPa 0,0 l/m 0,2 km/h (0 Bft) W-NW 293 5 min 0,000 mm 0,6 UV-I 212 W/m 3,4 C 4,4 C 4,8 km/h (1 Bft)
06.03.2017 09:30 4,7 C 93 % 999,5 hPa 0,0 l/m 0,5 km/h (0 Bft) W-NW 297 0 min 0,000 mm 0,6 UV-I 172 W/m 3,7 C 4,7 C 4,8 km/h (1 Bft)
06.03.2017 09:35 4,7 C 92 % 999,5 hPa 0,0 l/m 2,3 km/h (1 Bft) SW 236 0 min 0,000 mm 0,6 UV-I 133 W/m 3,5 C 4,7 C 6,4 km/h (2 Bft)
06.03.2017 09:40 4,8 C 92 % 999,5 hPa 0,0 l/m 0,3 km/h (0 Bft) W 261 0 min 0,000 mm 0,5 UV-I 110 W/m 3,6 C 4,8 C 3,2 km/h (1 Bft)
06.03.2017 09:45 4,8 C 92 % 999,4 hPa 0,0 l/m 0,9 km/h (0 Bft) W-SW 248 0 min 0,000 mm 0,5 UV-I 130 W/m 3,6 C 4,8 C 4,8 km/h (1 Bft)
06.03.2017 09:50 4,8 C 91 % 999,4 hPa 0,0 l/m 2,0 km/h (1 Bft) SW 228 0 min 0,000 mm 0,4 UV-I 89 W/m 3,5 C 4,8 C 8,0 km/h (2 Bft)
06.03.2017 09:55 4,8 C 92 % 999,5 hPa 0,0 l/m 1,1 km/h (1 Bft) W 263 0 min 0,000 mm 0,0 UV-I 76 W/m 3,6 C 4,8 C 8,0 km/h (2 Bft)
06.03.2017 10:00 4,9 C 92 % 999,5 hPa 0,0 l/m 1,3 km/h (1 Bft) W-SW 237 0 min 0,000 mm 0,0 UV-I 62 W/m 3,7 C 4,9 C 8,0 km/h (2 Bft)
06.03.2017 10:05 4,8 C 91 % 999,5 hPa 0,0 l/m 1,1 km/h (1 Bft) W-NW 295 0 min 0,051 mm 0,0 UV-I 57 W/m 3,5 C 4,8 C 6,4 km/h (2 Bft)
06.03.2017 10:10 4,8 C 92 % 999,5 hPa 0,0 l/m 0,4 km/h (0 Bft) W-SW 244 0 min 0,000 mm 0,0 UV-I 52 W/m 3,6 C 4,8 C 4,8 km/h (1 Bft)
06.03.2017 10:15 4,8 C 92 % 999,6 hPa 0,0 l/m 0,4 km/h (0 Bft) W-SW 250 0 min 0,000 mm 0,0 UV-I 56 W/m 3,6 C 4,8 C 4,8 km/h (1 Bft)
06.03.2017 10:20 4,8 C 92 % 999,5 hPa 0,0 l/m 0,5 km/h (0 Bft) W 269 0 min 0,000 mm 0,5 UV-I 81 W/m 3,6 C 4,8 C 4,8 km/h (1 Bft)
06.03.2017 10:25 4,9 C 92 % 999,5 hPa 0,0 l/m 0,2 km/h (0 Bft) S 183 0 min 0,000 mm 0,6 UV-I 118 W/m 3,7 C 4,9 C 3,2 km/h (1 Bft)
06.03.2017 10:30 5,0 C 92 % 999,5 hPa 0,0 l/m 0,8 km/h (0 Bft) W-NW 290 0 min 0,000 mm 0,6 UV-I 147 W/m 3,8 C 5,0 C 4,8 km/h (1 Bft)
06.03.2017 10:35 5,1 C 92 % 999,4 hPa 0,0 l/m 1,2 km/h (1 Bft) S-SW 209 0 min 0,000 mm 0,7 UV-I 149 W/m 3,9 C 5,1 C 6,4 km/h (2 Bft)
06.03.2017 10:40 5,1 C 92 % 999,4 hPa 0,0 l/m 1,5 km/h (1 Bft) W-SW 242 0 min 0,000 mm 0,8 UV-I 164 W/m 3,9 C 5,1 C 6,4 km/h (2 Bft)
06.03.2017 10:45 5,2 C 92 % 999,4 hPa 0,0 l/m 0,7 km/h (0 Bft) W 267 0 min 0,000 mm 0,8 UV-I 193 W/m 4,0 C 5,2 C 3,2 km/h (1 Bft)
06.03.2017 10:50 5,3 C 91 % 999,4 hPa 0,0 l/m 3,3 km/h (1 Bft) W-NW 295 0 min 0,000 mm 1,0 UV-I 220 W/m 4,0 C 5,3 C 9,7 km/h (2 Bft)
06.03.2017 10:55 5,3 C 91 % 999,5 hPa 0,0 l/m 4,4 km/h (1 Bft) W 269 0 min 0,000 mm 1,0 UV-I 197 W/m 4,0 C 5,3 C 11,3 km/h (2 Bft)
06.03.2017 11:00 5,2 C 90 % 999,5 hPa 0,0 l/m 5,7 km/h (1 Bft) W-SW 247 0 min 0,000 mm 0,9 UV-I 152 W/m 3,7 C 5,2 C 12,9 km/h (3 Bft)
06.03.2017 11:05 5,2 C 90 % 999,5 hPa 0,0 l/m 3,1 km/h (1 Bft) W 263 0 min 0,051 mm 0,7 UV-I 126 W/m 3,7 C 5,2 C 9,7 km/h (2 Bft)
06.03.2017 11:10 5,3 C 91 % 999,5 hPa 0,0 l/m 1,6 km/h (1 Bft) W 277 0 min 0,000 mm 0,8 UV-I 162 W/m 4,0 C 5,3 C 6,4 km/h (2 Bft)
06.03.2017 11:15 5,3 C 90 % 999,5 hPa 0,0 l/m 1,7 km/h (1 Bft) W-NW 284 0 min 0,000 mm 0,9 UV-I 184 W/m 3,8 C 5,3 C 8,0 km/h (2 Bft)
06.03.2017 11:20 5,4 C 90 % 999,5 hPa 0,0 l/m 1,5 km/h (1 Bft) W-SW 250 0 min 0,000 mm 1,1 UV-I 248 W/m 3,9 C 5,4 C 9,7 km/h (2 Bft)
06.03.2017 11:25 5,4 C 90 % 999,5 hPa 0,0 l/m 2,5 km/h (1 Bft) W 261 0 min 0,000 mm 0,9 UV-I 191 W/m 3,9 C 5,4 C 8,0 km/h (2 Bft)
06.03.2017 11:30 5,6 C 89 % 999,5 hPa 0,0 l/m 5,5 km/h (1 Bft) W-NW 294 0 min 0,000 mm 0,9 UV-I 158 W/m 3,9 C 5,6 C 11,3 km/h (2 Bft)
06.03.2017 11:35 5,4 C 87 % 999,5 hPa 0,0 l/m 6,9 km/h (2 Bft) W-SW 238 0 min 0,000 mm 1,1 UV-I 198 W/m 3,4 C 5,0 C 14,5 km/h (3 Bft)
06.03.2017 11:40 5,5 C 89 % 999,5 hPa 0,0 l/m 1,6 km/h (1 Bft) W 270 0 min 0,000 mm 1,3 UV-I 241 W/m 3,8 C 5,5 C 6,4 km/h (2 Bft)
06.03.2017 11:45 5,6 C 89 % 999,5 hPa 0,0 l/m 2,0 km/h (1 Bft) NW 306 0 min 0,000 mm 1,1 UV-I 221 W/m 3,9 C 5,6 C 9,7 km/h (2 Bft)
06.03.2017 11:50 5,8 C 89 % 999,5 hPa 0,0 l/m 0,7 km/h (0 Bft) W-NW 303 0 min 0,000 mm 0,9 UV-I 165 W/m 4,1 C 5,8 C 8,0 km/h (2 Bft)
06.03.2017 11:55 5,8 C 89 % 999,5 hPa 0,0 l/m 0,0 km/h (0 Bft) NW 312 0 min 0,000 mm 0,8 UV-I 138 W/m 4,1 C 5,8 C 0,0 km/h (0 Bft)
06.03.2017 12:00 5,9 C 89 % 999,5 hPa 0,0 l/m 0,2 km/h (0 Bft) N-NW 331 0 min 0,000 mm 0,8 UV-I 131 W/m 4,2 C 5,9 C 3,2 km/h (1 Bft)
06.03.2017 12:05 5,9 C 89 % 999,5 hPa 0,0 l/m 0,0 km/h (0 Bft) W-NW 300 0 min 0,076 mm 0,9 UV-I 144 W/m 4,2 C 5,9 C 0,0 km/h (0 Bft)
06.03.2017 12:10 5,9 C 89 % 999,5 hPa 0,0 l/m 0,0 km/h (0 Bft) NW 304 0 min 0,000 mm 0,8 UV-I 120 W/m 4,2 C 5,9 C 0,0 km/h (0 Bft)
06.03.2017 12:15 5,9 C 88 % 999,5 hPa 0,0 l/m 0,0 km/h (0 Bft) W-NW 294 0 min 0,000 mm 0,7 UV-I 99 W/m 4,1 C 5,9 C 0,0 km/h (0 Bft)
06.03.2017 12:20 5,9 C 89 % 999,5 hPa 0,0 l/m 0,2 km/h (0 Bft) W-NW 302 0 min 0,000 mm 0,7 UV-I 99 W/m 4,2 C 5,9 C 4,8 km/h (1 Bft)
06.03.2017 12:25 5,8 C 89 % 999,5 hPa 0,0 l/m 0,2 km/h (0 Bft) W-NW 296 0 min 0,000 mm 0,7 UV-I 101 W/m 4,1 C 5,8 C 4,8 km/h (1 Bft)
06.03.2017 12:30 5,8 C 89 % 999,4 hPa 0,0 l/m 0,1 km/h (0 Bft) W-NW 296 0 min 0,000 mm 0,9 UV-I 156 W/m 4,1 C 5,8 C 1,6 km/h (1 Bft)
06.03.2017 12:35 6,0 C 90 % 999,5 hPa 0,0 l/m 0,0 km/h (0 Bft) NW 316 0 min 0,000 mm 1,3 UV-I 264 W/m 4,5 C 6,0 C 0,0 km/h (0 Bft)
06.03.2017 12:40 6,1 C 90 % 999,5 hPa 0,0 l/m 0,0 km/h (0 Bft) NW 313 0 min 0,000 mm 1,1 UV-I 151 W/m 4,6 C 6,1 C 0,0 km/h (0 Bft)
06.03.2017 12:45 6,3 C 90 % 999,5 hPa 0,0 l/m 0,0 km/h (0 Bft) NW 304 0 min 0,000 mm 0,8 UV-I 109 W/m 4,8 C 6,3 C 0,0 km/h (0 Bft)
06.03.2017 12:50 6,3 C 89 % 999,5 hPa 0,0 l/m 0,0 km/h (0 Bft) NW 321 0 min 0,000 mm 0,9 UV-I 143 W/m 4,6 C 6,3 C 0,0 km/h (0 Bft)
06.03.2017 12:55 6,2 C 88 % 999,4 hPa 0,0 l/m 0,0 km/h (0 Bft) NW 319 0 min 0,000 mm 1,1 UV-I 156 W/m 4,4 C 6,2 C 0,0 km/h (0 Bft)
06.03.2017 13:00 6,2 C 89 % 999,4 hPa 0,0 l/m 0,0 km/h (0 Bft) NW 317 0 min 0,000 mm 1,2 UV-I 208 W/m 4,5 C 6,2 C 0,0 km/h (0 Bft)
06.03.2017 13:05 6,3 C 89 % 999,3 hPa 0,0 l/m 1,6 km/h (1 Bft) W-NW 303 0 min 0,051 mm 1,1 UV-I 214 W/m 4,6 C 6,3 C 9,7 km/h (2 Bft)
06.03.2017 13:10 6,3 C 86 % 999,4 hPa 0,0 l/m 0,2 km/h (0 Bft) NW 317 0 min 0,000 mm 1,1 UV-I 172 W/m 4,1 C 6,3 C 3,2 km/h (1 Bft)
06.03.2017 13:15 6,2 C 86 % 999,3 hPa 0,0 l/m 0,5 km/h (0 Bft) W-SW 255 0 min 0,000 mm 1,2 UV-I 188 W/m 4,0 C 6,2 C 4,8 km/h (1 Bft)
06.03.2017 13:20 6,2 C 86 % 999,4 hPa 0,0 l/m 0,0 km/h (0 Bft) W 261 0 min 0,000 mm 1,3 UV-I 245 W/m 4,0 C 6,2 C 0,0 km/h (0 Bft)
06.03.2017 13:25 6,2 C 86 % 999,4 hPa 0,0 l/m 2,1 km/h (1 Bft) W-SW 246 0 min 0,000 mm 1,3 UV-I 236 W/m 4,0 C 6,2 C 8,0 km/h (2 Bft)
06.03.2017 13:30 6,3 C 87 % 999,4 hPa 0,0 l/m 0,8 km/h (0 Bft) W 272 0 min 0,000 mm 1,3 UV-I 213 W/m 4,3 C 6,3 C 11,3 km/h (2 Bft)
06.03.2017 13:35 6,3 C 85 % 999,3 hPa 0,0 l/m 1,4 km/h (1 Bft) W-NW 292 0 min 0,000 mm 1,2 UV-I 221 W/m 4,0 C 6,3 C 6,4 km/h (2 Bft)
06.03.2017 13:40 6,4 C 85 % 999,3 hPa 0,0 l/m 1,7 km/h (1 Bft) W-NW 288 0 min 0,000 mm 1,2 UV-I 198 W/m 4,1 C 6,4 C 6,4 km/h (2 Bft)
06.03.2017 13:45 6,5 C 85 % 999,3 hPa 0,0 l/m 0,0 km/h (0 Bft) W-NW 284 0 min 0,000 mm 0,9 UV-I 151 W/m 4,2 C 6,5 C 0,0 km/h (0 Bft)
06.03.2017 13:50 6,6 C 85 % 999,4 hPa 0,0 l/m 1,6 km/h (1 Bft) W-NW 282 0 min 0,000 mm 0,7 UV-I 116 W/m 4,3 C 6,6 C 6,4 km/h (2 Bft)
06.03.2017 13:55 6,5 C 85 % 999,4 hPa 0,0 l/m 1,4 km/h (1 Bft) W 272 0 min 0,000 mm 0,5 UV-I 98 W/m 4,2 C 6,5 C 6,4 km/h (2 Bft)
06.03.2017 14:00 6,4 C 86 % 999,4 hPa 0,0 l/m 2,3 km/h (1 Bft) W-SW 247 0 min 0,000 mm 0,6 UV-I 112 W/m 4,2 C 6,4 C 8,0 km/h (2 Bft)
06.03.2017 14:05 6,4 C 87 % 999,4 hPa 0,0 l/m 0,9 km/h (0 Bft) W-NW 297 0 min 0,076 mm 0,5 UV-I 119 W/m 4,4 C 6,4 C 4,8 km/h (1 Bft)
06.03.2017 14:10 6,2 C 86 % 999,4 hPa 0,0 l/m 4,3 km/h (1 Bft) NW 313 5 min 0,000 mm 1,1 UV-I 313 W/m 4,0 C 6,2 C 11,3 km/h (2 Bft)
06.03.2017 14:15 6,1 C 86 % 999,4 hPa 0,0 l/m 3,3 km/h (1 Bft) SW 234 5 min 0,000 mm 1,4 UV-I 370 W/m 3,9 C 6,1 C 11,3 km/h (2 Bft)
06.03.2017 14:20 6,4 C 88 % 999,4 hPa 0,0 l/m 2,1 km/h (1 Bft) W-SW 248 5 min 0,000 mm 1,3 UV-I 351 W/m 4,6 C 6,4 C 4,8 km/h (1 Bft)
06.03.2017 14:25 6,4 C 86 % 999,4 hPa 0,0 l/m 4,6 km/h (1 Bft) W 265 0 min 0,000 mm 1,2 UV-I 224 W/m 4,2 C 6,4 C 12,9 km/h (3 Bft)
06.03.2017 14:30 6,3 C 86 % 999,4 hPa 0,0 l/m 1,3 km/h (1 Bft) W 279 0 min 0,000 mm 1,1 UV-I 201 W/m 4,1 C 6,3 C 6,4 km/h (2 Bft)
06.03.2017 14:35 6,3 C 86 % 999,4 hPa 0,0 l/m 1,5 km/h (1 Bft) W 276 0 min 0,000 mm 1,1 UV-I 203 W/m 4,1 C 6,3 C 6,4 km/h (2 Bft)
06.03.2017 14:40 6,4 C 85 % 999,4 hPa 0,0 l/m 0,7 km/h (0 Bft) W 279 0 min 0,000 mm 1,1 UV-I 179 W/m 4,1 C 6,4 C 4,8 km/h (1 Bft)
06.03.2017 14:45 6,4 C 84 % 999,4 hPa 0,0 l/m 1,2 km/h (1 Bft) W 271 0 min 0,000 mm 1,1 UV-I 196 W/m 3,9 C 6,4 C 6,4 km/h (2 Bft)
06.03.2017 14:50 6,4 C 86 % 999,4 hPa 0,0 l/m 0,4 km/h (0 Bft) SW 236 5 min 0,000 mm 1,2 UV-I 367 W/m 4,2 C 6,4 C 4,8 km/h (1 Bft)
06.03.2017 14:55 7,0 C 83 % 999,4 hPa 0,0 l/m 1,2 km/h (1 Bft) S-SW 209 5 min 0,000 mm 1,3 UV-I 638 W/m 4,3 C 7,0 C 6,4 km/h (2 Bft)
06.03.2017 15:00 7,2 C 82 % 999,4 hPa 0,0 l/m 3,0 km/h (1 Bft) SW 225 5 min 0,000 mm 1,0 UV-I 337 W/m 4,3 C 7,2 C 11,3 km/h (2 Bft)
06.03.2017 15:05 6,9 C 81 % 999,4 hPa 0,0 l/m 4,3 km/h (1 Bft) W 269 0 min 0,127 mm 0,9 UV-I 182 W/m 3,9 C 6,9 C 11,3 km/h (2 Bft)
06.03.2017 15:10 6,8 C 83 % 999,4 hPa 0,0 l/m 1,0 km/h (0 Bft) W 262 0 min 0,000 mm 0,7 UV-I 160 W/m 4,1 C 6,8 C 6,4 km/h (2 Bft)
06.03.2017 15:15 6,7 C 82 % 999,5 hPa 0,0 l/m 1,4 km/h (1 Bft) W-NW 293 0 min 0,000 mm 0,6 UV-I 130 W/m 3,8 C 6,7 C 6,4 km/h (2 Bft)
06.03.2017 15:20 6,7 C 82 % 999,6 hPa 0,0 l/m 3,7 km/h (1 Bft) W-NW 298 0 min 0,000 mm 0,6 UV-I 134 W/m 3,8 C 6,7 C 6,4 km/h (2 Bft)
06.03.2017 15:25 6,6 C 81 % 999,5 hPa 0,0 l/m 1,8 km/h (1 Bft) W-NW 288 0 min 0,000 mm 0,7 UV-I 163 W/m 3,6 C 6,6 C 6,4 km/h (2 Bft)
06.03.2017 15:30 6,6 C 81 % 999,6 hPa 0,0 l/m 1,4 km/h (1 Bft) W 278 0 min 0,000 mm 0,8 UV-I 174 W/m 3,6 C 6,6 C 6,4 km/h (2 Bft)
06.03.2017 15:35 6,9 C 82 % 999,5 hPa 0,0 l/m 0,5 km/h (0 Bft) W-NW 299 5 min 0,000 mm 0,9 UV-I 370 W/m 4,0 C 6,9 C 8,0 km/h (2 Bft)
06.03.2017 15:40 7,2 C 80 % 999,6 hPa 0,0 l/m 0,9 km/h (0 Bft) NW 309 0 min 0,000 mm 0,7 UV-I 136 W/m 4,0 C 7,2 C 6,4 km/h (2 Bft)
06.03.2017 15:45 7,1 C 80 % 999,6 hPa 0,0 l/m 1,4 km/h (1 Bft) W-NW 302 0 min 0,000 mm 0,7 UV-I 169 W/m 3,9 C 7,1 C 8,0 km/h (2 Bft)
06.03.2017 15:50 7,2 C 81 % 999,6 hPa 0,0 l/m 0,2 km/h (0 Bft) W 263 0 min 0,000 mm 0,5 UV-I 123 W/m 4,2 C 7,2 C 4,8 km/h (1 Bft)
06.03.2017 15:55 7,1 C 79 % 999,6 hPa 0,0 l/m 2,0 km/h (1 Bft) W 272 0 min 0,000 mm 0,5 UV-I 120 W/m 3,7 C 7,1 C 8,0 km/h (2 Bft)
06.03.2017 16:00 6,8 C 80 % 999,7 hPa 0,0 l/m 1,8 km/h (1 Bft) W-NW 291 5 min 0,000 mm 0,6 UV-I 213 W/m 3,6 C 6,8 C 8,0 km/h (2 Bft)
06.03.2017 16:05 6,8 C 80 % 999,7 hPa 0,0 l/m 3,0 km/h (1 Bft) W 269 0 min 0,076 mm 0,6 UV-I 167 W/m 3,6 C 6,8 C 9,7 km/h (2 Bft)
06.03.2017 16:10 6,9 C 81 % 999,6 hPa 0,0 l/m 1,6 km/h (1 Bft) W-NW 286 5 min 0,000 mm 0,6 UV-I 289 W/m 3,9 C 6,9 C 6,4 km/h (2 Bft)
06.03.2017 16:15 7,1 C 80 % 999,6 hPa 0,0 l/m 0,2 km/h (0 Bft) W 279 0 min 0,000 mm 0,3 UV-I 151 W/m 3,9 C 7,1 C 4,8 km/h (1 Bft)
06.03.2017 16:20 7,2 C 79 % 999,7 hPa 0,0 l/m 1,5 km/h (1 Bft) W 278 0 min 0,000 mm 0,0 UV-I 78 W/m 3,8 C 7,2 C 8,0 km/h (2 Bft)
06.03.2017 16:25 7,0 C 78 % 999,7 hPa 0,0 l/m 3,4 km/h (1 Bft) W 272 0 min 0,000 mm 0,0 UV-I 70 W/m 3,4 C 7,0 C 12,9 km/h (3 Bft)
06.03.2017 16:30 6,9 C 79 % 999,9 hPa 0,0 l/m 2,2 km/h (1 Bft) W 269 0 min 0,000 mm 0,0 UV-I 77 W/m 3,5 C 6,9 C 6,4 km/h (2 Bft)
06.03.2017 16:35 6,8 C 80 % 999,9 hPa 0,0 l/m 2,3 km/h (1 Bft) NW 320 0 min 0,000 mm 0,0 UV-I 81 W/m 3,6 C 6,8 C 8,0 km/h (2 Bft)
06.03.2017 16:40 6,8 C 80 % 1000,0 hPa 0,0 l/m 0,4 km/h (0 Bft) W-NW 303 0 min 0,000 mm 0,0 UV-I 74 W/m 3,6 C 6,8 C 8,0 km/h (2 Bft)
06.03.2017 16:45 6,8 C 80 % 1000,0 hPa 0,0 l/m 1,1 km/h (1 Bft) W-NW 298 0 min 0,000 mm 0,0 UV-I 67 W/m 3,6 C 6,8 C 6,4 km/h (2 Bft)
06.03.2017 16:50 6,8 C 81 % 1000,0 hPa 0,0 l/m 0,0 km/h (0 Bft) W-NW 298 0 min 0,000 mm 0,0 UV-I 47 W/m 3,8 C 6,8 C 0,0 km/h (0 Bft)
06.03.2017 16:55 6,8 C 81 % 1000,2 hPa 0,0 l/m 1,9 km/h (1 Bft) W-NW 289 0 min 0,000 mm 0,0 UV-I 47 W/m 3,8 C 6,8 C 8,0 km/h (2 Bft)
06.03.2017 17:00 6,7 C 82 % 1000,3 hPa 0,0 l/m 1,2 km/h (1 Bft) W-NW 295 0 min 0,000 mm 0,0 UV-I 48 W/m 3,8 C 6,7 C 4,8 km/h (1 Bft)
06.03.2017 17:05 6,6 C 82 % 1000,4 hPa 0,0 l/m 1,8 km/h (1 Bft) W 277 0 min 0,051 mm 0,0 UV-I 39 W/m 3,8 C 6,6 C 8,0 km/h (2 Bft)
06.03.2017 17:10 6,6 C 83 % 1000,4 hPa 0,0 l/m 0,0 km/h (0 Bft) NW 304 0 min 0,000 mm 0,0 UV-I 38 W/m 3,9 C 6,6 C 1,6 km/h (1 Bft)
06.03.2017 17:15 6,5 C 83 % 1000,4 hPa 0,0 l/m 0,0 km/h (0 Bft) W-NW 293 0 min 0,000 mm 0,0 UV-I 54 W/m 3,8 C 6,5 C 0,0 km/h (0 Bft)
06.03.2017 17:20 6,3 C 83 % 1000,6 hPa 0,0 l/m 2,2 km/h (1 Bft) W-NW 298 0 min 0,000 mm 0,0 UV-I 39 W/m 3,6 C 6,3 C 8,0 km/h (2 Bft)
06.03.2017 17:25 6,2 C 83 % 1000,7 hPa 0,0 l/m 1,0 km/h (0 Bft) NW 304 0 min 0,000 mm 0,0 UV-I 25 W/m 3,5 C 6,2 C 6,4 km/h (2 Bft)
06.03.2017 17:30 6,2 C 84 % 1000,8 hPa 0,0 l/m 0,6 km/h (0 Bft) NW 311 0 min 0,000 mm 0,0 UV-I 20 W/m 3,7 C 6,2 C 4,8 km/h (1 Bft)
06.03.2017 17:35 6,1 C 84 % 1000,8 hPa 0,0 l/m 0,1 km/h (0 Bft) NW 309 0 min 0,000 mm 0,0 UV-I 14 W/m 3,6 C 6,1 C 1,6 km/h (1 Bft)
06.03.2017 17:40 6,0 C 85 % 1000,9 hPa 0,0 l/m 0,4 km/h (0 Bft) W-NW 297 0 min 0,000 mm 0,0 UV-I 10 W/m 3,7 C 6,0 C 3,2 km/h (1 Bft)
06.03.2017 17:45 5,9 C 86 % 1000,9 hPa 0,0 l/m 0,0 km/h (0 Bft) NW 308 0 min 0,000 mm 0,0 UV-I 12 W/m 3,7 C 5,9 C 0,0 km/h (0 Bft)
06.03.2017 17:50 5,9 C 86 % 1001,0 hPa 0,0 l/m 0,1 km/h (0 Bft) W-NW 282 0 min 0,000 mm 0,0 UV-I 11 W/m 3,7 C 5,9 C 1,6 km/h (1 Bft)
06.03.2017 17:55 5,8 C 86 % 1001,0 hPa 0,0 l/m 0,0 km/h (0 Bft) W-NW 292 0 min 0,000 mm 0,0 UV-I 8 W/m 3,6 C 5,8 C 0,0 km/h (0 Bft)
06.03.2017 18:00 5,7 C 87 % 1001,2 hPa 0,0 l/m 0,0 km/h (0 Bft) W-NW 286 0 min 0,000 mm 0,0 UV-I 7 W/m 3,7 C 5,7 C 0,0 km/h (0 Bft)
06.03.2017 18:05 5,5 C 87 % 1001,3 hPa 0,0 l/m 0,0 km/h (0 Bft) W-NW 302 0 min 0,000 mm 0,0 UV-I 5 W/m 3,5 C 5,5 C 0,0 km/h (0 Bft)
06.03.2017 18:10 5,4 C 87 % 1001,3 hPa 0,0 l/m 0,5 km/h (0 Bft) NW 311 0 min 0,000 mm 0,0 UV-I 0 W/m 3,4 C 5,4 C 4,8 km/h (1 Bft)
06.03.2017 18:15 5,4 C 87 % 1001,4 hPa 0,0 l/m 0,1 km/h (0 Bft) NW 311 0 min 0,000 mm 0,0 UV-I 0 W/m 3,4 C 5,4 C 3,2 km/h (1 Bft)
06.03.2017 18:20 5,3 C 88 % 1001,4 hPa 0,0 l/m 0,2 km/h (0 Bft) NW 315 0 min 0,000 mm 0,0 UV-I 0 W/m 3,5 C 5,3 C 1,6 km/h (1 Bft)
06.03.2017 18:25 5,3 C 88 % 1001,6 hPa 0,0 l/m 0,2 km/h (0 Bft) W-NW 290 0 min 0,000 mm 0,0 UV-I 0 W/m 3,5 C 5,3 C 3,2 km/h (1 Bft)
06.03.2017 18:30 5,2 C 88 % 1001,6 hPa 0,0 l/m 0,1 km/h (0 Bft) W-NW 287 0 min 0,000 mm 0,0 UV-I 0 W/m 3,4 C 5,2 C 1,6 km/h (1 Bft)
06.03.2017 18:35 5,2 C 88 % 1001,7 hPa 0,0 l/m 0,5 km/h (0 Bft) SW 233 0 min 0,000 mm 0,0 UV-I 0 W/m 3,4 C 5,2 C 4,8 km/h (1 Bft)
06.03.2017 18:40 5,1 C 89 % 1001,8 hPa 0,0 l/m 0,0 km/h (0 Bft) W 279 0 min 0,000 mm 0,0 UV-I 0 W/m 3,4 C 5,1 C 0,0 km/h (0 Bft)
06.03.2017 18:45 5,2 C 89 % 1001,8 hPa 0,0 l/m 0,0 km/h (0 Bft) NW 311 0 min 0,000 mm 0,0 UV-I 0 W/m 3,5 C 5,2 C 1,6 km/h (1 Bft)
06.03.2017 18:50 5,2 C 89 % 1001,8 hPa 0,0 l/m 0,7 km/h (0 Bft) W-NW 292 0 min 0,000 mm 0,0 UV-I 0 W/m 3,5 C 5,2 C 3,2 km/h (1 Bft)
06.03.2017 18:55 5,2 C 89 % 1001,9 hPa 0,0 l/m 0,0 km/h (0 Bft) NW 306 0 min 0,000 mm 0,0 UV-I 0 W/m 3,5 C 5,2 C 0,0 km/h (0 Bft)
06.03.2017 19:00 5,2 C 89 % 1002,0 hPa 0,0 l/m 0,3 km/h (0 Bft) W 264 0 min 0,000 mm 0,0 UV-I 0 W/m 3,5 C 5,2 C 4,8 km/h (1 Bft)
06.03.2017 19:05 5,1 C 89 % 1002,0 hPa 0,0 l/m 0,5 km/h (0 Bft) W-NW 290 0 min 0,000 mm 0,0 UV-I 0 W/m 3,4 C 5,1 C 4,8 km/h (1 Bft)
06.03.2017 19:10 5,0 C 89 % 1002,0 hPa 0,0 l/m 0,4 km/h (0 Bft) W 267 0 min 0,000 mm 0,0 UV-I 0 W/m 3,3 C 5,0 C 3,2 km/h (1 Bft)
06.03.2017 19:15 4,9 C 90 % 1002,0 hPa 0,0 l/m 0,1 km/h (0 Bft) W 263 0 min 0,000 mm 0,0 UV-I 0 W/m 3,4 C 4,9 C 1,6 km/h (1 Bft)
06.03.2017 19:20 4,8 C 89 % 1002,1 hPa 0,0 l/m 1,0 km/h (0 Bft) W 281 0 min 0,000 mm 0,0 UV-I 0 W/m 3,1 C 4,8 C 6,4 km/h (2 Bft)
06.03.2017 19:25 4,7 C 90 % 1002,2 hPa 0,0 l/m 0,2 km/h (0 Bft) NW 306 0 min 0,000 mm 0,0 UV-I 0 W/m 3,2 C 4,7 C 3,2 km/h (1 Bft)
06.03.2017 19:30 4,6 C 90 % 1002,3 hPa 0,0 l/m 0,1 km/h (0 Bft) W 281 0 min 0,000 mm 0,0 UV-I 0 W/m 3,1 C 4,6 C 1,6 km/h (1 Bft)
06.03.2017 19:35 4,5 C 90 % 1002,6 hPa 0,0 l/m 0,3 km/h (0 Bft) W-NW 285 0 min 0,000 mm 0,0 UV-I 0 W/m 3,0 C 4,5 C 3,2 km/h (1 Bft)
06.03.2017 19:40 4,4 C 91 % 1002,6 hPa 0,0 l/m 0,1 km/h (0 Bft) W 263 0 min 0,000 mm 0,0 UV-I 0 W/m 3,1 C 4,4 C 3,2 km/h (1 Bft)
06.03.2017 19:45 4,4 C 91 % 1002,7 hPa 0,0 l/m 0,0 km/h (0 Bft) W-NW 286 0 min 0,000 mm 0,0 UV-I 0 W/m 3,1 C 4,4 C 0,0 km/h (0 Bft)
06.03.2017 19:50 4,3 C 91 % 1002,7 hPa 0,0 l/m 0,0 km/h (0 Bft) NW 316 0 min 0,000 mm 0,0 UV-I 0 W/m 3,0 C 4,3 C 0,0 km/h (0 Bft)
06.03.2017 19:55 4,3 C 91 % 1002,8 hPa 0,0 l/m 0,0 km/h (0 Bft) NW 316 0 min 0,000 mm 0,0 UV-I 0 W/m 3,0 C 4,3 C 0,0 km/h (0 Bft)
06.03.2017 20:00 4,3 C 91 % 1002,8 hPa 0,0 l/m 0,0 km/h (0 Bft) NW 306 0 min 0,000 mm 0,0 UV-I 0 W/m 3,0 C 4,3 C 0,0 km/h (0 Bft)
06.03.2017 20:05 4,3 C 91 % 1003,0 hPa 0,0 l/m 0,0 km/h (0 Bft) NW 306 0 min 0,000 mm 0,0 UV-I 0 W/m 3,0 C 4,3 C 0,0 km/h (0 Bft)
06.03.2017 20:10 4,2 C 91 % 1003,0 hPa 0,0 l/m 0,0 km/h (0 Bft) W-SW 247 0 min 0,000 mm 0,0 UV-I 0 W/m 2,9 C 4,2 C 0,0 km/h (0 Bft)
06.03.2017 20:15 4,2 C 91 % 1003,1 hPa 0,0 l/m 0,0 km/h (0 Bft) SW 234 0 min 0,000 mm 0,0 UV-I 0 W/m 2,9 C 4,2 C 0,0 km/h (0 Bft)
06.03.2017 20:20 4,2 C 91 % 1003,1 hPa 0,2 l/m 0,0 km/h (0 Bft) W 266 0 min 0,000 mm 0,0 UV-I 0 W/m 2,9 C 4,2 C 0,0 km/h (0 Bft)
06.03.2017 20:25 4,2 C 91 % 1003,2 hPa 0,0 l/m 0,2 km/h (0 Bft) W 266 0 min 0,000 mm 0,0 UV-I 0 W/m 2,9 C 4,2 C 4,8 km/h (1 Bft)
06.03.2017 20:30 4,2 C 91 % 1003,3 hPa 0,0 l/m 0,0 km/h (0 Bft) W-SW 237 0 min 0,000 mm 0,0 UV-I 0 W/m 2,9 C 4,2 C 0,0 km/h (0 Bft)
06.03.2017 20:35 4,2 C 91 % 1003,3 hPa 0,0 l/m 0,1 km/h (0 Bft) W-SW 254 0 min 0,000 mm 0,0 UV-I 0 W/m 2,9 C 4,2 C 1,6 km/h (1 Bft)
06.03.2017 20:40 4,2 C 91 % 1003,4 hPa 0,0 l/m 0,1 km/h (0 Bft) W-SW 254 0 min 0,000 mm 0,0 UV-I 0 W/m 2,9 C 4,2 C 1,6 km/h (1 Bft)
06.03.2017 20:45 4,2 C 91 % 1003,6 hPa 0,0 l/m 0,0 km/h (0 Bft) W-SW 251 0 min 0,000 mm 0,0 UV-I 0 W/m 2,9 C 4,2 C 1,6 km/h (1 Bft)
06.03.2017 20:50 4,2 C 91 % 1003,6 hPa 0,0 l/m 0,4 km/h (0 Bft) W 280 0 min 0,000 mm 0,0 UV-I 0 W/m 2,9 C 4,2 C 4,8 km/h (1 Bft)
06.03.2017 20:55 4,2 C 91 % 1003,7 hPa 0,0 l/m 0,0 km/h (0 Bft) W 270 0 min 0,000 mm 0,0 UV-I 0 W/m 2,9 C 4,2 C 0,0 km/h (0 Bft)
06.03.2017 21:00 4,2 C 92 % 1003,7 hPa 0,0 l/m 0,0 km/h (0 Bft) W 271 0 min 0,000 mm 0,0 UV-I 0 W/m 3,0 C 4,2 C 1,6 km/h (1 Bft)
06.03.2017 21:05 4,2 C 92 % 1003,8 hPa 0,0 l/m 0,0 km/h (0 Bft) W-NW 288 0 min 0,000 mm 0,0 UV-I 0 W/m 3,0 C 4,2 C 0,0 km/h (0 Bft)
06.03.2017 21:10 4,2 C 92 % 1003,9 hPa 0,0 l/m 0,0 km/h (0 Bft) W-NW 287 0 min 0,000 mm 0,0 UV-I 0 W/m 3,0 C 4,2 C 0,0 km/h (0 Bft)
06.03.2017 21:15 4,2 C 92 % 1004,0 hPa 0,0 l/m 0,0 km/h (0 Bft) W-SW 243 0 min 0,000 mm 0,0 UV-I 0 W/m 3,0 C 4,2 C 0,0 km/h (0 Bft)
06.03.2017 21:20 4,2 C 92 % 1004,0 hPa 0,0 l/m 0,1 km/h (0 Bft) W 281 0 min 0,000 mm 0,0 UV-I 0 W/m 3,0 C 4,2 C 3,2 km/h (1 Bft)
06.03.2017 21:25 4,3 C 92 % 1004,1 hPa 0,0 l/m 0,0 km/h (0 Bft) W 281 0 min 0,000 mm 0,0 UV-I 0 W/m 3,1 C 4,3 C 0,0 km/h (0 Bft)
06.03.2017 21:30 4,3 C 91 % 1004,1 hPa 0,0 l/m 0,0 km/h (0 Bft) W 281 0 min 0,000 mm 0,0 UV-I 0 W/m 3,0 C 4,3 C 0,0 km/h (0 Bft)
06.03.2017 21:35 4,3 C 92 % 1004,2 hPa 0,0 l/m 0,0 km/h (0 Bft) W 281 0 min 0,000 mm 0,0 UV-I 0 W/m 3,1 C 4,3 C 0,0 km/h (0 Bft)
06.03.2017 21:40 4,3 C 91 % 1004,3 hPa 0,0 l/m 0,0 km/h (0 Bft) W 281 0 min 0,000 mm 0,0 UV-I 0 W/m 3,0 C 4,3 C 0,0 km/h (0 Bft)
06.03.2017 21:45 4,3 C 91 % 1004,4 hPa 0,0 l/m 0,0 km/h (0 Bft) W 281 0 min 0,000 mm 0,0 UV-I 0 W/m 3,0 C 4,3 C 0,0 km/h (0 Bft)
06.03.2017 21:50 4,3 C 92 % 1004,4 hPa 0,0 l/m 0,0 km/h (0 Bft) W 281 0 min 0,000 mm 0,0 UV-I 0 W/m 3,1 C 4,3 C 0,0 km/h (0 Bft)
06.03.2017 21:55 4,4 C 92 % 1004,5 hPa 0,0 l/m 0,0 km/h (0 Bft) W 281 0 min 0,000 mm 0,0 UV-I 0 W/m 3,2 C 4,4 C 0,0 km/h (0 Bft)
06.03.2017 22:00 4,4 C 92 % 1004,5 hPa 0,0 l/m 0,0 km/h (0 Bft) W 281 0 min 0,000 mm 0,0 UV-I 0 W/m 3,2 C 4,4 C 0,0 km/h (0 Bft)
06.03.2017 22:05 4,4 C 92 % 1004,6 hPa 0,0 l/m 0,0 km/h (0 Bft) W 281 0 min 0,000 mm 0,0 UV-I 0 W/m 3,2 C 4,4 C 0,0 km/h (0 Bft)
06.03.2017 22:10 4,4 C 92 % 1004,6 hPa 0,0 l/m 0,0 km/h (0 Bft) W 281 0 min 0,000 mm 0,0 UV-I 0 W/m 3,2 C 4,4 C 0,0 km/h (0 Bft)
06.03.2017 22:15 4,4 C 92 % 1004,8 hPa 0,0 l/m 0,0 km/h (0 Bft) W 281 0 min 0,000 mm 0,0 UV-I 0 W/m 3,2 C 4,4 C 1,6 km/h (1 Bft)
06.03.2017 22:20 4,4 C 92 % 1004,7 hPa 0,0 l/m 0,0 km/h (0 Bft) W 280 0 min 0,000 mm 0,0 UV-I 0 W/m 3,2 C 4,4 C 0,0 km/h (0 Bft)
06.03.2017 22:25 4,4 C 92 % 1004,8 hPa 0,0 l/m 0,0 km/h (0 Bft) W 280 0 min 0,000 mm 0,0 UV-I 0 W/m 3,2 C 4,4 C 0,0 km/h (0 Bft)
06.03.2017 22:30 4,4 C 92 % 1004,8 hPa 0,0 l/m 0,0 km/h (0 Bft) W 280 0 min 0,000 mm 0,0 UV-I 0 W/m 3,2 C 4,4 C 0,0 km/h (0 Bft)
06.03.2017 22:35 4,4 C 92 % 1004,9 hPa 0,0 l/m 0,0 km/h (0 Bft) W 280 0 min 0,000 mm 0,0 UV-I 0 W/m 3,2 C 4,4 C 0,0 km/h (0 Bft)
06.03.2017 22:40 4,4 C 92 % 1005,1 hPa 0,0 l/m 0,0 km/h (0 Bft) W 280 0 min 0,000 mm 0,0 UV-I 0 W/m 3,2 C 4,4 C 0,0 km/h (0 Bft)
06.03.2017 22:45 4,4 C 92 % 1005,1 hPa 0,0 l/m 0,0 km/h (0 Bft) W-SW 257 0 min 0,000 mm 0,0 UV-I 0 W/m 3,2 C 4,4 C 0,0 km/h (0 Bft)
06.03.2017 22:50 4,4 C 92 % 1005,2 hPa 0,0 l/m 0,0 km/h (0 Bft) W-SW 257 0 min 0,000 mm 0,0 UV-I 0 W/m 3,2 C 4,4 C 0,0 km/h (0 Bft)
06.03.2017 22:55 4,4 C 92 % 1005,2 hPa 0,0 l/m 0,2 km/h (0 Bft) W-SW 242 0 min 0,000 mm 0,0 UV-I 0 W/m 3,2 C 4,4 C 3,2 km/h (1 Bft)
06.03.2017 23:00 4,4 C 92 % 1005,3 hPa 0,0 l/m 0,0 km/h (0 Bft) W-SW 245 0 min 0,000 mm 0,0 UV-I 0 W/m 3,2 C 4,4 C 1,6 km/h (1 Bft)
06.03.2017 23:05 4,4 C 92 % 1005,4 hPa 0,0 l/m 0,0 km/h (0 Bft) W 277 0 min 0,000 mm 0,0 UV-I 0 W/m 3,2 C 4,4 C 0,0 km/h (0 Bft)
06.03.2017 23:10 4,4 C 92 % 1005,5 hPa 0,0 l/m 0,9 km/h (0 Bft) W-SW 250 0 min 0,000 mm 0,0 UV-I 0 W/m 3,2 C 4,4 C 4,8 km/h (1 Bft)
06.03.2017 23:15 4,4 C 92 % 1005,5 hPa 0,0 l/m 0,0 km/h (0 Bft) W 274 0 min 0,000 mm 0,0 UV-I 0 W/m 3,2 C 4,4 C 0,0 km/h (0 Bft)
06.03.2017 23:20 4,4 C 92 % 1005,6 hPa 0,0 l/m 0,4 km/h (0 Bft) W 259 0 min 0,000 mm 0,0 UV-I 0 W/m 3,2 C 4,4 C 3,2 km/h (1 Bft)
06.03.2017 23:25 4,4 C 91 % 1005,7 hPa 0,0 l/m 0,4 km/h (0 Bft) W 266 0 min 0,000 mm 0,0 UV-I 0 W/m 3,1 C 4,4 C 4,8 km/h (1 Bft)
06.03.2017 23:30 4,4 C 91 % 1005,7 hPa 0,0 l/m 0,0 km/h (0 Bft) W 265 0 min 0,000 mm 0,0 UV-I 0 W/m 3,1 C 4,4 C 0,0 km/h (0 Bft)
06.03.2017 23:35 4,4 C 91 % 1005,7 hPa 0,0 l/m 0,0 km/h (0 Bft) W-SW 252 0 min 0,000 mm 0,0 UV-I 0 W/m 3,1 C 4,4 C 0,0 km/h (0 Bft)
06.03.2017 23:40 4,4 C 91 % 1005,8 hPa 0,0 l/m 0,0 km/h (0 Bft) W-SW 258 0 min 0,000 mm 0,0 UV-I 0 W/m 3,1 C 4,4 C 0,0 km/h (0 Bft)
06.03.2017 23:45 4,4 C 91 % 1005,8 hPa 0,0 l/m 1,0 km/h (0 Bft) W-SW 247 0 min 0,000 mm 0,0 UV-I 0 W/m 3,1 C 4,4 C 6,4 km/h (2 Bft)
06.03.2017 23:50 4,4 C 91 % 1005,8 hPa 0,0 l/m 0,0 km/h (0 Bft) W-SW 246 0 min 0,000 mm 0,0 UV-I 0 W/m 3,1 C 4,4 C 0,0 km/h (0 Bft)
06.03.2017 23:55 4,4 C 91 % 1005,8 hPa 0,0 l/m 1,2 km/h (1 Bft) W 277 0 min 0,000 mm 0,0 UV-I 0 W/m 3,1 C 4,4 C 8,0 km/h (2 Bft)
_ Min-Zeit 03:10 16:25 13:05 - 00:40 - - - - - - 03:10 03:10 00:40
Minimum _ 3,2 C 78 % 999,3 hPa - 0,0 km/h (0 Bft) - - - - - - 2,0 C 3,2 C 0,0 km/h (0 Bft)
_ Max-Zeit 15:00 01:25 23:40 00:50 11:35 - - 09:25 15:05 14:15 14:55 12:45 15:00 11:35
Maximum _ 7,2 C 93 % 1005,8 hPa 0,2 l/m 6,9 km/h
W-SW (2 Bft)
- - 5 min 0,127 mm 1,4 UV-I 638 W/m 4,8 C 7,2 C 14,5 km/h
W (3 Bft)
Durchschnitt _ 4,7 C 90 % 1000,9 hPa #2,0 l/m 0,7 km/h (0 Bft) W - #50 min. #0,584 mm 0,9 UV-I 126 W/m 3,2 C 4,7 C 3,6 km/h (1 Bft)